Date String (YYYY-MM-DD hh:mm:ss) UTC,Instrument flags,absolute air pressure of the measurement (hPa),sample flow rate (lpm),inlet stack bypass flow (lpm),air temperature of the measurement (°C),ambient temperature measured by the external sensor (°C),aerosol sample conditioner tube jacket temperature (°C),OPC LED temperature (°C),internal box temperature (°C),relative humidity of the measurement (%),span deviation,mass concentration of particles derived from Lorenz-Mie calculation of OPC scattering (μg/m³),mass concentration of particles derived from Lorenz-Mie calculation of OPC scattering (μg/m³),mass concentration of particles derived from Lorenz-Mie calculation of OPC scattering (μg/m³)
DateTimeUTC,F1_M11,P_M11,Q1_M11,Q2_M11,T1_M11,T2_M11,T3_M11,T4_M11,T5_M11,U1_M11,ZSPAN_M11,X0_M11,X2_M11,X1_M11
2023-08-02 20:00:00,SystemResetWarning,0835.2,4.96,000.00,030.7,027.5,000.0,038.6,031.3,33.2,0000.0,0006.64,0003.53,0003.18
2023-08-02 20:01:00,SystemResetWarning,0835.0,5.03,000.00,030.8,027.7,000.0,038.6,031.3,34.1,0000.0,0006.66,0003.52,0003.17
2023-08-02 20:02:00,SystemResetWarning,0835.2,4.99,000.00,030.8,027.2,000.0,038.6,031.3,33.6,0000.0,0006.72,0003.54,0003.16
2023-08-02 20:03:00,SystemResetWarning,0834.6,5.00,000.00,030.8,025.8,000.0,038.5,031.0,33.8,0000.0,0006.76,0003.55,0003.16
2023-08-02 20:04:00,SystemResetWarning,0834.8,4.99,000.00,030.7,025.3,000.0,038.4,030.9,34.9,0000.0,0006.80,0003.56,0003.16
2023-08-02 20:05:00,SystemResetWarning,0834.8,5.04,000.00,030.7,025.5,000.0,038.5,030.8,35.2,0000.0,0006.87,0003.57,0003.16
2023-08-02 20:06:00,SystemResetWarning,0834.8,4.97,000.00,030.7,025.8,000.0,038.5,030.8,34.4,0000.0,0006.57,0003.56,0003.17
2023-08-02 20:07:00,SystemResetWarning,0834.8,5.00,000.00,030.8,026.3,000.0,038.5,031.0,33.6,0000.0,0005.91,0003.57,0003.18
2023-08-02 20:08:00,SystemResetWarning,0834.6,5.00,000.00,030.9,026.7,000.0,038.6,031.1,34.1,0000.0,0006.18,0003.57,0003.18
2023-08-02 20:09:00,SystemResetWarning,0834.5,5.01,000.00,030.9,027.1,000.0,038.6,031.2,34.3,0000.0,0006.70,0003.55,0003.19
2023-08-02 20:10:00,SystemResetWarning,0834.5,5.00,000.00,031.0,027.4,000.0,038.7,031.2,34.2,0000.0,0006.62,0003.57,0003.21
2023-08-02 20:11:00,SystemResetWarning,0834.7,5.00,000.00,031.0,027.7,000.0,038.7,031.3,34.2,0000.0,0006.68,0003.60,0003.24
2023-08-02 20:12:00,SystemResetWarning,0834.9,4.99,000.00,031.0,027.8,000.0,038.8,031.4,33.5,0000.0,0006.69,0003.63,0003.27
2023-08-02 20:13:00,SystemResetWarning,0834.5,4.99,000.00,031.0,026.8,000.0,038.7,031.3,33.1,0000.0,0006.80,0003.66,0003.29
2023-08-02 20:14:00,SystemResetWarning,0834.5,5.01,000.00,031.0,025.6,000.0,038.6,031.1,32.7,0000.0,0006.68,0003.66,0003.30
2023-08-02 20:15:00,SystemResetWarning,0834.5,5.00,000.00,030.9,025.3,000.0,038.6,030.9,32.8,0000.0,0006.70,0003.66,0003.31
2023-08-02 20:16:00,SystemResetWarning,0834.5,5.01,000.00,030.7,025.6,000.0,038.6,030.8,33.0,0000.0,0006.57,0003.63,0003.30
2023-08-02 20:17:00,SystemResetWarning,0834.5,4.99,000.00,030.6,026.0,000.0,038.6,030.9,34.3,0000.0,0006.59,0003.64,0003.30
2023-08-02 20:18:00,SystemResetWarning,0835.0,4.99,000.00,030.6,026.5,000.0,038.7,031.0,32.7,0000.0,0006.46,0003.62,0003.31
2023-08-02 20:19:00,SystemResetWarning,0835.1,5.00,000.00,030.6,026.9,000.0,038.7,031.1,32.6,0000.0,0006.20,0003.60,0003.31
2023-08-02 20:20:00,SystemResetWarning,0835.0,5.02,000.00,030.6,027.3,000.0,038.7,031.2,32.8,0000.0,0005.40,0003.61,0003.33
2023-08-02 20:21:00,SystemResetWarning,0834.9,5.00,000.00,030.6,027.6,000.0,038.7,031.2,33.0,0000.0,0005.52,0003.65,0003.34
2023-08-02 20:22:00,SystemResetWarning,0834.6,5.00,000.00,030.6,027.8,000.0,038.7,031.3,32.4,0000.0,0005.99,0003.65,0003.34
2023-08-02 20:23:00,SystemResetWarning,0834.9,4.99,000.00,030.6,027.0,000.0,038.6,031.3,31.8,0000.0,0005.95,0003.66,0003.35
2023-08-02 20:24:00,SystemResetWarning,0835.0,5.00,000.00,030.6,025.6,000.0,038.5,031.0,31.4,0000.0,0005.97,0003.66,0003.36
2023-08-02 20:25:00,SystemResetWarning,0835.0,5.00,000.00,030.5,025.2,000.0,038.4,030.9,31.6,0000.0,0006.05,0003.67,0003.37
2023-08-02 20:26:00,SystemResetWarning,0834.9,5.01,000.00,030.4,025.5,000.0,038.4,030.7,32.0,0000.0,0006.24,0003.71,0003.39
2023-08-02 20:27:00,SystemResetWarning,0835.1,5.01,000.00,030.3,025.9,000.0,038.4,030.7,31.8,0000.0,0006.21,0003.72,0003.40
2023-08-02 20:28:00,SystemResetWarning,0834.9,5.00,000.00,030.2,026.3,000.0,038.5,030.8,31.4,0000.0,0006.51,0003.77,0003.43
2023-08-02 20:29:00,SystemResetWarning,0834.6,5.00,000.00,030.2,026.8,000.0,038.5,030.9,32.1,0000.0,0006.76,0003.83,0003.45
2023-08-02 20:30:00,SystemResetWarning,0834.8,4.99,000.00,030.2,027.1,000.0,038.5,031.0,31.9,0000.0,0007.04,0003.88,0003.47
2023-08-02 20:31:00,SystemResetWarning,0835.1,5.00,000.00,030.2,027.5,000.0,038.5,031.1,33.0,0000.0,0007.22,0003.90,0003.47
2023-08-02 20:32:00,SystemResetWarning,0835.1,5.00,000.00,030.2,027.7,000.0,038.5,031.2,33.6,0000.0,0007.40,0003.92,0003.49
2023-08-02 20:33:00,SystemResetWarning,0835.1,4.99,000.00,030.2,027.1,000.0,038.4,031.2,33.4,0000.0,0007.32,0003.98,0003.50
2023-08-02 20:34:00,SystemResetWarning,0835.2,4.99,000.00,030.2,025.8,000.0,038.2,030.9,34.2,0000.0,0008.29,0004.00,0003.52
2023-08-02 20:35:00,SystemResetWarning,0835.1,5.02,000.00,030.1,025.3,000.0,038.2,030.8,33.5,0000.0,0008.43,0004.01,0003.52
2023-08-02 20:36:00,SystemResetWarning,0835.0,5.00,000.00,030.0,025.4,000.0,038.2,030.5,33.6,0000.0,0008.41,0004.02,0003.53
2023-08-02 20:37:00,SystemResetWarning,0835.1,5.00,000.00,029.9,025.8,000.0,038.2,030.6,33.4,0000.0,0008.35,0004.02,0003.54
2023-08-02 20:38:00,SystemResetWarning,0835.1,5.00,000.00,029.8,026.3,000.0,038.2,030.7,34.3,0000.0,0008.43,0004.04,0003.54
2023-08-02 20:39:00,SystemResetWarning,0834.9,4.97,000.00,029.8,026.7,000.0,038.2,030.8,35.0,0000.0,0008.40,0004.03,0003.53
2023-08-02 20:40:00,SystemResetWarning,0834.6,5.03,000.00,029.9,027.1,000.0,038.2,030.9,35.2,0000.0,0008.29,0003.99,0003.53
2023-08-02 20:41:00,SystemResetWarning,0834.9,5.00,000.00,030.2,027.4,000.0,038.2,031.1,35.4,0000.0,0008.23,0003.99,0003.52
2023-08-02 20:42:00,SystemResetWarning,0834.8,4.99,000.00,030.5,027.7,000.0,038.2,031.3,33.4,0000.0,0008.20,0003.99,0003.52
2023-08-02 20:43:00,SystemResetWarning,0834.6,4.98,000.00,030.6,027.3,000.0,038.2,031.3,33.5,0000.0,0007.95,0003.93,0003.51
2023-08-02 20:44:00,SystemResetWarning,0834.6,5.00,000.00,030.7,025.9,000.0,038.1,031.0,32.1,0000.0,0007.76,0003.87,0003.50
2023-08-02 20:45:00,SystemResetWarning,0834.6,5.01,000.00,030.7,025.3,000.0,038.1,030.8,32.0,0000.0,0006.60,0003.88,0003.48
2023-08-02 20:46:00,SystemResetWarning,0834.7,5.01,000.00,030.6,025.4,000.0,038.1,030.7,33.2,0000.0,0006.37,0003.83,0003.46
2023-08-02 20:47:00,SystemResetWarning,0834.6,5.01,000.00,030.5,025.8,000.0,038.2,030.7,33.3,0000.0,0007.43,0003.80,0003.44
2023-08-02 20:48:00,SystemResetWarning,0834.9,4.99,000.00,030.5,026.2,000.0,038.3,030.8,34.0,0000.0,0007.37,0003.77,0003.42
2023-08-02 20:49:00,SystemResetWarning,0834.7,4.99,000.00,030.5,026.7,000.0,038.4,030.9,34.1,0000.0,0007.38,0003.76,0003.40
2023-08-02 20:50:00,SystemResetWarning,0834.7,5.01,000.00,030.5,027.1,000.0,038.4,031.0,34.1,0000.0,0007.25,0003.71,0003.38
2023-08-02 20:51:00,SystemResetWarning,0834.8,5.01,000.00,030.5,027.4,000.0,038.4,031.1,32.8,0000.0,0007.94,0003.70,0003.37
2023-08-02 20:52:00,SystemResetWarning,0834.7,5.00,000.00,030.5,027.7,000.0,038.5,031.2,32.3,0000.0,0008.69,0003.70,0003.36
2023-08-02 20:53:00,SystemResetWarning,0834.8,4.99,000.00,030.5,027.5,000.0,038.5,031.2,32.4,0000.0,0008.79,0003.70,0003.36
2023-08-02 20:54:00,SystemResetWarning,0834.7,4.99,000.00,030.5,026.1,000.0,038.4,030.9,32.4,0000.0,0008.81,0003.72,0003.36
2023-08-02 20:55:00,SystemResetWarning,0834.9,5.01,000.00,030.4,025.3,000.0,038.3,030.8,32.4,0000.0,0008.89,0003.75,0003.37
2023-08-02 20:56:00,SystemResetWarning,0835.1,5.01,000.00,030.3,025.3,000.0,038.2,030.6,32.8,0000.0,0008.93,0003.77,0003.37
2023-08-02 20:57:00,SystemResetWarning,0834.9,5.00,000.00,030.2,025.7,000.0,038.3,030.6,32.8,0000.0,0008.84,0003.74,0003.36
2023-08-02 20:58:00,SystemResetWarning,0834.9,4.98,000.00,030.2,026.2,000.0,038.3,030.7,33.3,0000.0,0008.70,0003.77,0003.38
2023-08-02 20:59:00,SystemResetWarning,0834.6,5.00,000.00,030.1,026.6,000.0,038.3,030.8,33.9,0000.0,0008.13,0003.80,0003.40
